| time (UTC) | temp F | wind direction | speed MPH | gust MPH | rain 1hr in | rain 24hr in | rain mn in | humidity % | barometer mb |
| 20260505203345 | 55 | 341 | 3.0 | 7.0 | 0.00 | 0.10 | 0.10 | 40 | 1009.7 |
| 20260505202841 | 55 | 264 | 4.0 | 7.0 | 0.00 | 0.10 | 0.10 | 42 | 1009.5 |
| 20260505202337 | 55 | 268 | 5.0 | 7.0 | 0.00 | 0.10 | 0.10 | 39 | 1009.8 |
| 20260505201834 | 55 | 267 | 4.0 | 9.0 | 0.00 | 0.10 | 0.10 | 42 | 1009.5 |
| 20260505201332 | 55 | 277 | 5.0 | 8.0 | 0.00 | 0.10 | 0.10 | 41 | 1009.6 |
| 20260505200830 | 55 | 266 | 3.0 | 7.0 | 0.00 | 0.10 | 0.10 | 44 | 1009.6 |
| 20260505200326 | 55 | 278 | 3.0 | 10.0 | 0.00 | 0.10 | 0.10 | 42 | 1009.5 |
| 20260505195822 | 55 | 257 | 3.0 | 8.0 | 0.00 | 0.10 | 0.10 | 44 | 1009.4 |
| 20260505195319 | 55 | 277 | 5.0 | 11.0 | 0.00 | 0.10 | 0.10 | 42 | 1009.6 |
| 20260505194816 | 55 | 282 | 3.0 | 8.0 | 0.00 | 0.10 | 0.10 | 42 | 1009.4 |
| 20260505194314 | 55 | 41 | 0.0 | 10.0 | 0.00 | 0.10 | 0.10 | 44 | 1009.4 |
| 20260505193809 | 55 | 255 | 3.0 | 9.0 | 0.00 | 0.10 | 0.10 | 42 | 1009.4 |
| 20260505193307 | 55 | 278 | 5.0 | 9.0 | 0.00 | 0.10 | 0.10 | 42 | 1009.6 |
| 20260505192805 | 55 | 280 | 3.0 | 6.0 | 0.00 | 0.10 | 0.10 | 43 | 1009.6 |
| 20260505192305 | 56 | 272 | 5.0 | 7.0 | 0.00 | 0.10 | 0.10 | 43 | 1009.4 |
| 20260505191800 | 56 | 278 | 5.0 | 10.0 | 0.00 | 0.10 | 0.10 | 42 | 1009.5 |
| 20260505191258 | 56 | 241 | 6.0 | 10.0 | 0.00 | 0.10 | 0.10 | 42 | 1009.7 |
| 20260505190754 | 56 | 294 | 6.0 | 9.0 | 0.00 | 0.10 | 0.10 | 40 | 1009.7 |
| 20260505190250 | 56 | 258 | 6.0 | 9.0 | 0.00 | 0.10 | 0.10 | 39 | 1009.7 |
| 20260505185746 | 57 | 266 | 7.0 | 10.0 | 0.00 | 0.10 | 0.10 | 41 | 1009.5 |
| 20260505185243 | 57 | 273 | 5.0 | 6.0 | 0.00 | 0.10 | 0.10 | 40 | 1009.8 |
| 20260505184739 | 57 | 236 | 0.0 | 6.0 | 0.00 | 0.10 | 0.10 | 42 | 1009.4 |
| 20260505184236 | 57 | 246 | 3.0 | 4.0 | 0.00 | 0.10 | 0.10 | 43 | 1009.7 |
| 20260505183733 | 57 | 265 | 3.0 | 10.0 | 0.00 | 0.10 | 0.10 | 41 | 1009.8 |
| 20260505183230 | 57 | 263 | 1.0 | 5.0 | 0.00 | 0.10 | 0.10 | 45 | 1009.6 |
| 20260505182726 | 57 | 253 | 4.0 | 8.0 | 0.00 | 0.10 | 0.10 | 49 | 1009.5 |
| 20260505182224 | 57 | 233 | 5.0 | 8.0 | 0.00 | 0.10 | 0.10 | 46 | 1009.6 |
| 20260505181720 | 57 | 271 | 4.0 | 6.0 | 0.00 | 0.10 | 0.10 | 51 | 1009.8 |
| 20260505181218 | 56 | 263 | 3.0 | 6.0 | 0.00 | 0.10 | 0.10 | 51 | 1009.6 |
| 20260505180714 | 56 | 243 | 3.0 | 6.0 | 0.00 | 0.10 | 0.10 | 53 | 1009.5 |
| 20260505180211 | 56 | 178 | 0.0 | 5.0 | 0.00 | 0.10 | 0.10 | 56 | 1009.7 |
| 20260505175707 | 55 | 246 | 3.0 | 6.0 | 0.00 | 0.10 | 0.10 | 54 | 1009.5 |
| 20260505175203 | 55 | 228 | 6.0 | 6.0 | 0.00 | 0.10 | 0.10 | 53 | 1009.6 |
| 20260505174700 | 55 | 219 | 2.0 | 9.0 | 0.00 | 0.10 | 0.10 | 54 | 1009.6 |
| 20260505174156 | 55 | 235 | 2.0 | 8.0 | 0.00 | 0.10 | 0.10 | 53 | 1009.4 |
| 20260505173653 | 55 | 255 | 3.0 | 5.0 | 0.00 | 0.10 | 0.10 | 52 | 1009.4 |
| 20260505173150 | 55 | 283 | 2.0 | 7.0 | 0.00 | 0.10 | 0.10 | 54 | 1009.5 |
| 20260505172647 | 55 | 276 | 2.0 | 3.0 | 0.00 | 0.10 | 0.10 | 52 | 1009.6 |
| 20260505172144 | 55 | 241 | 2.0 | 6.0 | 0.00 | 0.10 | 0.10 | 52 | 1009.4 |
| 20260505171643 | 54 | 300 | 3.0 | 10.0 | 0.00 | 0.10 | 0.10 | 51 | 1009.5 |
| 20260505171141 | 55 | 282 | 4.0 | 8.0 | 0.00 | 0.10 | 0.10 | 51 | 1009.5 |
| 20260505170638 | 55 | 206 | 0.0 | 5.0 | 0.00 | 0.10 | 0.10 | 55 | 1009.2 |
| 20260505170134 | 55 | 274 | 2.0 | 7.0 | 0.00 | 0.10 | 0.10 | 54 | 1009.3 |
| 20260505165629 | 55 | 316 | 3.0 | 7.0 | 0.00 | 0.10 | 0.10 | 53 | 1009.3 |
| 20260505165126 | 55 | 304 | 3.0 | 12.0 | 0.00 | 0.10 | 0.10 | 52 | 1009.4 |
| 20260505164621 | 55 | 269 | 3.0 | 8.0 | 0.00 | 0.10 | 0.10 | 52 | 1009.4 |
| 20260505164119 | 56 | 234 | 2.0 | 7.0 | 0.00 | 0.10 | 0.10 | 56 | 1009.2 |
| 20260505163617 | 55 | 329 | 2.0 | 6.0 | 0.00 | 0.10 | 0.10 | 51 | 1009.4 |
| 20260505163114 | 55 | 278 | 3.0 | 7.0 | 0.00 | 0.10 | 0.10 | 54 | 1009.5 |
| 20260505162612 | 56 | 284 | 2.0 | 8.0 | 0.00 | 0.10 | 0.10 | 54 | 1009.3 |
| 20260505162109 | 56 | 326 | 4.0 | 7.0 | 0.00 | 0.10 | 0.10 | 52 | 1009.2 |
| 20260505161606 | 54 | 265 | 5.0 | 9.0 | 0.00 | 0.09 | 0.09 | 57 | 1009.3 |
| 20260505161103 | 54 | 344 | 3.0 | 9.0 | 0.00 | 0.09 | 0.09 | 57 | 1009.4 |
| 20260505160601 | 54 | 263 | 3.0 | 7.0 | 0.00 | 0.09 | 0.09 | 57 | 1008.9 |
| 20260505153038 | 52 | 330 | 1.0 | 3.0 | 0.00 | 0.09 | 0.09 | 67 | 1009.0 |
| 20260505152534 | 52 | 269 | 3.0 | 4.0 | 0.00 | 0.09 | 0.09 | 70 | 1009.0 |
| 20260505152030 | 51 | 231 | 0.0 | 3.0 | 0.00 | 0.09 | 0.09 | 71 | 1009.0 |
| 20260505151530 | 51 | 21 | 3.0 | 5.0 | 0.00 | 0.09 | 0.09 | 68 | 1008.7 |
| 20260505151029 | 51 | 329 | 0.0 | 4.0 | 0.00 | 0.09 | 0.09 | 75 | 1009.1 |
| 20260505150525 | 51 | 207 | 0.0 | 3.0 | 0.00 | 0.09 | 0.09 | 77 | 1009.3 |
| 20260505140450 | 45 | 286 | 0.0 | 4.0 | 0.00 | 0.09 | 0.09 | 92 | 1009.6 |
| 20260505124903 | 45 | 345 | 4.0 | 7.0 | 0.02 | 0.05 | 0.05 | 85 | 1009.1 |
| 20260505124401 | 45 | 353 | 7.0 | 7.0 | 0.07 | 0.05 | 0.05 | 84 | 1008.9 |
| 20260505123856 | 45 | 336 | 6.0 | 8.0 | 0.05 | 0.04 | 0.04 | 81 | 1008.8 |
| 20260505123353 | 46 | 331 | 2.0 | 10.0 | 0.12 | 0.04 | 0.04 | 79 | 1008.7 |
| 20260505122849 | 46 | 331 | 5.0 | 10.0 | 0.14 | 0.03 | 0.03 | 78 | 1008.8 |
| 20260505122347 | 47 | 49 | 3.0 | 9.0 | 0.09 | 0.02 | 0.02 | 76 | 1008.9 |
| 20260505121843 | 48 | 340 | 9.0 | 11.0 | 0.02 | 0.00 | 0.00 | 71 | 1009.0 |
| 20260505121340 | 50 | 324 | 3.0 | 9.0 | 0.00 | 0.00 | 0.00 | 66 | 1009.1 |
| 20260505120836 | 50 | 306 | 3.0 | 9.0 | 0.00 | 0.00 | 0.00 | 63 | 1009.0 |
| 20260505120332 | 50 | 303 | 3.0 | 9.0 | 0.00 | 0.00 | 0.00 | 65 | 1009.0 |
| 20260505115831 | 50 | 335 | 0.0 | 3.0 | 0.00 | 0.00 | 0.00 | 68 | 1008.9 |
| 20260505115329 | 50 | 344 | 1.0 | 5.0 | 0.00 | 0.00 | 0.00 | 66 | 1008.4 |
| 20260505114827 | 51 | 322 | 2.0 | 5.0 | 0.00 | 0.00 | 0.00 | 64 | 1008.0 |
| 20260505114323 | 51 | 356 | 3.0 | 8.0 | 0.00 | 0.00 | 0.00 | 63 | 1007.9 |
| 20260505113819 | 51 | 329 | 8.0 | 10.0 | 0.00 | 0.00 | 0.00 | 61 | 1007.7 |
| 20260505113316 | 51 | 277 | 1.0 | 5.0 | 0.00 | 0.00 | 0.00 | 66 | 1007.5 |
| 20260505112811 | 51 | 1 | 3.0 | 8.0 | 0.00 | 0.00 | 0.00 | 64 | 1007.2 |
| 20260505112309 | 51 | 354 | 3.0 | 6.0 | 0.00 | 0.00 | 0.00 | 62 | 1007.3 |
| 20260505111804 | 51 | 339 | 2.0 | 6.0 | 0.00 | 0.00 | 0.00 | 63 | 1007.2 |
| 20260505111300 | 51 | 311 | 2.0 | 5.0 | 0.00 | 0.00 | 0.00 | 64 | 1006.9 |
| 20260505110756 | 51 | 292 | 1.0 | 6.0 | 0.00 | 0.00 | 0.00 | 64 | 1006.6 |
| 20260505110254 | 51 | 352 | 3.0 | 5.0 | 0.00 | 0.00 | 0.00 | 66 | 1006.6 |
| 20260505101728 | 52 | 256 | 0.0 | 6.0 | 0.00 | 0.00 | 0.00 | 63 | 1006.2 |
| 20260505101224 | 53 | 320 | 2.0 | 7.0 | 0.00 | 0.00 | 0.00 | 62 | 1006.3 |
| 20260505100720 | 53 | 17 | 3.0 | 8.0 | 0.00 | 0.00 | 0.00 | 62 | 1006.2 |
| 20260505100217 | 53 | 336 | 3.0 | 7.0 | 0.00 | 0.00 | 0.00 | 62 | 1006.1 |
| 20260505095712 | 53 | 353 | 3.0 | 5.0 | 0.00 | 0.00 | 0.00 | 67 | 1006.3 |
| 20260505095211 | 53 | 4 | 1.0 | 4.0 | 0.00 | 0.00 | 0.00 | 64 | 1006.0 |
| 20260505094706 | 53 | 193 | 0.0 | 2.0 | 0.00 | 0.00 | 0.00 | 63 | 1006.0 |
| 20260505094203 | 54 | 283 | 0.0 | 2.0 | 0.00 | 0.00 | 0.00 | 63 | 1006.2 |
| 20260505093659 | 54 | 329 | 0.0 | 3.0 | 0.00 | 0.00 | 0.00 | 61 | 1006.4 |
| 20260505093156 | 54 | 268 | 0.0 | 2.0 | 0.00 | 0.00 | 0.00 | 60 | 1006.1 |
| 20260505092653 | 54 | 60 | 0.0 | 3.0 | 0.00 | 0.00 | 0.00 | 58 | 1006.4 |
| 20260505092152 | 55 | 288 | 3.0 | 4.0 | 0.00 | 0.00 | 0.00 | 58 | 1006.3 |
| 20260505091648 | 55 | 287 | 4.0 | 5.0 | 0.00 | 0.00 | 0.00 | 58 | 1006.1 |
| 20260505091147 | 55 | 243 | 2.0 | 4.0 | 0.00 | 0.00 | 0.00 | 59 | 1006.2 |
| 20260505090644 | 55 | 242 | 2.0 | 4.0 | 0.00 | 0.00 | 0.00 | 59 | 1006.0 |
| 20260505090142 | 55 | 239 | 1.0 | 3.0 | 0.00 | 0.00 | 0.00 | 60 | 1005.7 |
| 20260505085639 | 55 | 201 | 0.0 | 6.0 | 0.00 | 0.00 | 0.00 | 59 | 1005.8 |
| 20260505085137 | 55 | 238 | 2.0 | 5.0 | 0.00 | 0.00 | 0.00 | 59 | 1005.7 |
| 20260505084635 | 55 | 259 | 2.0 | 3.0 | 0.00 | 0.00 | 0.00 | 59 | 1005.3 |
| 20260505084133 | 55 | 276 | 2.0 | 5.0 | 0.00 | 0.00 | 0.00 | 59 | 1005.3 |
| 20260505083630 | 55 | 274 | 2.0 | 4.0 | 0.00 | 0.00 | 0.00 | 59 | 1005.0 |
| 20260505083126 | 55 | 251 | 1.0 | 3.0 | 0.00 | 0.00 | 0.00 | 58 | 1004.8 |
| 20260505082622 | 55 | 139 | 0.0 | 2.0 | 0.00 | 0.00 | 0.00 | 60 | 1004.5 |
| 20260505082120 | 55 | 224 | 0.0 | 3.0 | 0.00 | 0.00 | 0.00 | 60 | 1004.6 |
| 20260505081615 | 55 | 283 | 0.0 | 2.0 | 0.00 | 0.00 | 0.00 | 61 | 1004.3 |
| 20260505081114 | 55 | 235 | 0.0 | 3.0 | 0.00 | 0.00 | 0.00 | 60 | 1004.4 |
| 20260505080609 | 55 | 212 | 0.0 | 4.0 | 0.00 | 0.00 | 0.00 | 61 | 1004.2 |
| 20260505080106 | 54 | 334 | 0.0 | 2.0 | 0.00 | 0.00 | 0.00 | 63 | 1003.9 |
| 20260505075601 | 55 | 125 | 1.0 | 2.0 | 0.00 | 0.00 | 0.00 | 61 | 1003.9 |
| 20260505075058 | 55 | 269 | 0.0 | 3.0 | 0.00 | 0.00 | 0.00 | 60 | 1004.1 |
| 20260505074555 | 55 | 242 | 2.0 | 4.0 | 0.00 | 0.00 | 0.00 | 58 | 1004.2 |
| 20260505074053 | 55 | 278 | 0.0 | 3.0 | 0.00 | 0.00 | 0.00 | 59 | 1003.5 |
| 20260505073550 | 55 | 354 | 0.0 | 4.0 | 0.00 | 0.00 | 0.00 | 59 | 1003.7 |
| 20260505073049 | 55 | 274 | 2.0 | 3.0 | 0.00 | 0.00 | 0.00 | 60 | 1003.9 |
| 20260505072544 | 55 | 256 | 1.0 | 2.0 | 0.00 | 0.00 | 0.00 | 62 | 1003.5 |
| 20260505072041 | 55 | 227 | 0.0 | 2.0 | 0.00 | 0.00 | 0.00 | 61 | 1003.5 |
| 20260505071536 | 55 | 154 | 0.0 | 1.0 | 0.00 | 0.00 | 0.00 | 63 | 1003.2 |
| 20260505071035 | 55 | 164 | 0.0 | 1.0 | 0.00 | 0.00 | 0.00 | 61 | 1003.1 |
| 20260505070532 | 55 | 186 | 0.0 | 2.0 | 0.00 | 0.00 | 0.00 | 62 | 1003.1 |
| 20260505070028 | 55 | 274 | 0.0 | 3.0 | 0.00 | 0.00 | 0.00 | 61 | 1003.3 |
| 20260505065524 | 55 | 327 | 1.0 | 3.0 | 0.00 | 0.00 | 0.00 | 60 | 1003.0 |
| 20260505065020 | 56 | 7 | 0.0 | 3.0 | 0.00 | 0.00 | 0.00 | 59 | 1002.9 |
| 20260505064517 | 56 | 282 | 3.0 | 5.0 | 0.00 | 0.00 | 0.00 | 59 | 1002.9 |
| 20260505064016 | 56 | 294 | 1.0 | 4.0 | 0.00 | 0.00 | 0.00 | 59 | 1002.7 |
| 20260505063513 | 56 | 272 | 2.0 | 4.0 | 0.00 | 0.00 | 0.00 | 59 | 1002.8 |
| 20260505063008 | 57 | 334 | 0.0 | 6.0 | 0.00 | 0.00 | 0.00 | 59 | 1002.6 |
| 20260505062505 | 57 | 289 | 2.0 | 3.0 | 0.00 | 0.00 | 0.00 | 60 | 1002.6 |
| 20260505062003 | 56 | 275 | 3.0 | 5.0 | 0.00 | 0.00 | 0.00 | 61 | 1002.3 |
| 20260505061500 | 56 | 192 | 1.0 | 4.0 | 0.00 | 0.00 | 0.00 | 64 | 1002.6 |
| 20260505060957 | 57 | 264 | 1.0 | 4.0 | 0.00 | 0.00 | 0.00 | 66 | 1002.5 |
| 20260505060455 | 57 | 268 | 2.0 | 4.0 | 0.00 | 0.00 | 0.00 | 67 | 1002.6 |
| 20260505055951 | 57 | 248 | 2.0 | 6.0 | 0.00 | 0.00 | 0.00 | 68 | 1002.6 |
| 20260505055447 | 57 | 212 | 2.0 | 4.0 | 0.00 | 0.00 | 0.00 | 71 | 1002.5 |
| 20260505054944 | 57 | 237 | 3.0 | 7.0 | 0.00 | 0.00 | 0.00 | 74 | 1002.8 |
| 20260505054441 | 57 | 276 | 1.0 | 5.0 | 0.00 | 0.00 | 0.00 | 77 | 1002.5 |
| 20260505053939 | 57 | 264 | 2.0 | 7.0 | 0.00 | 0.00 | 0.00 | 79 | 1002.4 |
| 20260505053436 | 57 | 263 | 3.0 | 5.0 | 0.00 | 0.00 | 0.00 | 82 | 1002.5 |
| 20260505052932 | 57 | 255 | 3.0 | 9.0 | 0.00 | 0.00 | 0.00 | 84 | 1002.7 |
| 20260505052430 | 57 | 250 | 3.0 | 5.0 | 0.00 | 0.00 | 0.00 | 86 | 1002.6 |
| 20260505051927 | 58 | 244 | 3.0 | 5.0 | 0.00 | 0.00 | 0.00 | 86 | 1002.7 |
| 20260505051424 | 58 | 272 | 4.0 | 8.0 | 0.00 | 0.00 | 0.00 | 85 | 1002.6 |
| 20260505050922 | 58 | 257 | 3.0 | 8.0 | 0.00 | 0.00 | 0.00 | 86 | 1002.5 |
| 20260505050420 | 58 | 252 | 3.0 | 8.0 | 0.00 | 0.00 | 0.00 | 88 | 1002.1 |
| 20260505041347 | 58 | 237 | 2.0 | 3.0 | 0.00 | 0.41 | 0.41 | 89 | 1001.9 |
| 20260505040844 | 59 | 239 | 2.0 | 4.0 | 0.00 | 0.41 | 0.41 | 88 | 1001.4 |
| 20260505040342 | 59 | 233 | 3.0 | 5.0 | 0.00 | 0.41 | 0.41 | 88 | 1001.6 |
| 20260505035839 | 59 | 230 | 2.0 | 4.0 | 0.00 | 0.41 | 0.41 | 88 | 1001.5 |
| 20260505035334 | 59 | 221 | 3.0 | 4.0 | 0.00 | 0.41 | 0.41 | 87 | 1001.7 |
| 20260505034832 | 59 | 188 | 2.0 | 4.0 | 0.00 | 0.41 | 0.41 | 87 | 1001.9 |
| 20260505034328 | 60 | 220 | 1.0 | 7.0 | 0.00 | 0.41 | 0.41 | 86 | 1001.7 |
| 20260505033826 | 60 | 248 | 2.0 | 4.0 | 0.00 | 0.41 | 0.41 | 86 | 1002.0 |
| 20260505033322 | 60 | 207 | 4.0 | 6.0 | 0.00 | 0.41 | 0.41 | 86 | 1001.9 |
| 20260505032821 | 60 | 215 | 5.0 | 8.0 | 0.00 | 0.41 | 0.41 | 86 | 1001.6 |
| 20260505032316 | 60 | 218 | 5.0 | 7.0 | 0.00 | 0.41 | 0.41 | 85 | 1001.6 |
| 20260505031814 | 60 | 203 | 8.0 | 12.0 | 0.00 | 0.41 | 0.41 | 84 | 1001.8 |
| 20260505031310 | 60 | 222 | 5.0 | 12.0 | 0.00 | 0.41 | 0.41 | 83 | 1001.3 |
| 20260505030808 | 60 | 210 | 5.0 | 9.0 | 0.00 | 0.41 | 0.41 | 84 | 1001.3 |
| 20260505030304 | 59 | 205 | 3.0 | 7.0 | 0.00 | 0.41 | 0.41 | 85 | 1001.1 |
| 20260505025759 | 59 | 212 | 5.0 | 8.0 | 0.00 | 0.41 | 0.41 | 85 | 1001.0 |
| 20260505025257 | 59 | 192 | 2.0 | 7.0 | 0.00 | 0.41 | 0.41 | 85 | 1001.1 |
| 20260505024755 | 59 | 208 | 5.0 | 9.0 | 0.00 | 0.41 | 0.41 | 86 | 1001.0 |
| 20260505024252 | 59 | 161 | 4.0 | 7.0 | 0.00 | 0.41 | 0.41 | 86 | 1001.1 |
| 20260505023749 | 59 | 219 | 5.0 | 9.0 | 0.00 | 0.41 | 0.41 | 86 | 1001.3 |
| 20260505023246 | 59 | 176 | 1.0 | 7.0 | 0.00 | 0.41 | 0.41 | 86 | 1001.1 |
| 20260505022744 | 59 | 204 | 5.0 | 7.0 | 0.00 | 0.41 | 0.41 | 87 | 1001.2 |
| 20260505022241 | 59 | 160 | 3.0 | 6.0 | 0.00 | 0.41 | 0.41 | 88 | 1001.1 |
| 20260505021737 | 59 | 196 | 3.0 | 6.0 | 0.00 | 0.41 | 0.41 | 88 | 1000.9 |
| 20260505021235 | 59 | 204 | 7.0 | 7.0 | 0.05 | 0.41 | 0.41 | 88 | 1001.2 |
| 20260505020730 | 59 | 179 | 3.0 | 5.0 | 0.05 | 0.41 | 0.41 | 88 | 1000.9 |
| 20260505020225 | 59 | 217 | 5.0 | 6.0 | 0.02 | 0.41 | 0.41 | 88 | 1000.7 |
| 20260505015723 | 59 | 173 | 4.0 | 9.0 | 0.02 | 0.40 | 0.40 | 88 | 1000.3 |
| 20260505015220 | 59 | 172 | 4.0 | 11.0 | 0.05 | 0.40 | 0.40 | 88 | 1000.6 |
| 20260505014717 | 59 | 216 | 10.0 | 15.0 | 0.00 | 0.39 | 0.39 | 88 | 1000.5 |
| 20260505014214 | 59 | 212 | 9.0 | 11.0 | 0.02 | 0.39 | 0.39 | 90 | 1000.4 |
| 20260505013711 | 59 | 211 | 6.0 | 15.0 | 0.05 | 0.39 | 0.39 | 90 | 1000.2 |
| 20260505013208 | 59 | 213 | 5.0 | 16.0 | 0.05 | 0.39 | 0.39 | 90 | 1000.4 |
| 20260505012706 | 59 | 206 | 19.0 | 23.0 | 0.02 | 0.39 | 0.39 | 89 | 1000.7 |
| 20260505012203 | 60 | 217 | 4.0 | 13.0 | 0.00 | 0.38 | 0.38 | 88 | 1001.1 |
| 20260505011658 | 60 | 180 | 9.0 | 23.0 | 0.00 | 0.38 | 0.38 | 85 | 1000.9 |
| 20260505011156 | 61 | 188 | 9.0 | 17.0 | 0.00 | 0.38 | 0.38 | 83 | 1001.1 |
| 20260505010651 | 61 | 218 | 5.0 | 13.0 | 0.00 | 0.38 | 0.38 | 82 | 1000.6 |
| 20260505010149 | 61 | 215 | 7.0 | 13.0 | 0.00 | 0.38 | 0.38 | 83 | 1000.7 |
| 20260505005644 | 61 | 222 | 2.0 | 11.0 | 0.00 | 0.38 | 0.38 | 83 | 1000.4 |
| 20260505005142 | 62 | 192 | 2.0 | 10.0 | 0.00 | 0.38 | 0.38 | 83 | 1000.2 |
| 20260505004639 | 61 | 215 | 4.0 | 10.0 | 0.00 | 0.38 | 0.38 | 84 | 1000.1 |
| 20260505004135 | 61 | 219 | 6.0 | 10.0 | 0.00 | 0.38 | 0.38 | 86 | 999.9 |
| 20260505003632 | 61 | 209 | 8.0 | 8.0 | 0.00 | 0.38 | 0.38 | 88 | 999.6 |
| 20260505003130 | 61 | 138 | 4.0 | 8.0 | 0.02 | 0.38 | 0.38 | 87 | 999.0 |
| 20260505002626 | 62 | 167 | 5.0 | 12.0 | 0.05 | 0.38 | 0.38 | 86 | 999.4 |
| 20260505002124 | 62 | 218 | 6.0 | 15.0 | 0.07 | 0.37 | 0.37 | 86 | 999.7 |
| 20260505001621 | 61 | 207 | 10.0 | 19.0 | 0.07 | 0.37 | 0.37 | 85 | 1000.4 |
| 20260505001119 | 59 | 263 | 1.0 | 10.0 | 0.09 | 0.36 | 0.36 | 90 | 1000.2 |
| 20260505000615 | 59 | 232 | 0.0 | 4.0 | 0.21 | 0.35 | 0.35 | 90 | 1000.1 |
| 20260505000114 | 58 | 262 | 4.0 | 16.0 | 0.38 | 0.34 | 0.34 | 87 | 1000.2 |
| 20260504235609 | 58 | 290 | 5.0 | 17.0 | 0.19 | 0.31 | 0.31 | 80 | 1000.1 |
| 20260504235106 | 68 | 300 | 7.0 | 10.0 | 0.00 | 0.28 | 0.28 | 71 | 1000.3 |
| 20260504234603 | 68 | 236 | 5.0 | 11.0 | 0.00 | 0.28 | 0.28 | 71 | 998.9 |
| 20260504234101 | 69 | 217 | 5.0 | 11.0 | 0.00 | 0.28 | 0.28 | 69 | 998.4 |
| 20260504233555 | 69 | 185 | 11.0 | 11.0 | 0.00 | 0.28 | 0.28 | 69 | 998.2 |
| 20260504233052 | 68 | 214 | 6.0 | 11.0 | 0.00 | 0.28 | 0.28 | 70 | 998.6 |
| 20260504232550 | 68 | 208 | 5.0 | 17.0 | 0.00 | 0.28 | 0.28 | 69 | 998.5 |
| 20260504232047 | 67 | 196 | 4.0 | 9.0 | 0.00 | 0.28 | 0.28 | 76 | 998.9 |
| 20260504231543 | 67 | 166 | 3.0 | 6.0 | 0.00 | 0.28 | 0.28 | 77 | 998.5 |
| 20260504231040 | 68 | 219 | 3.0 | 11.0 | 0.00 | 0.28 | 0.28 | 74 | 998.6 |
| 20260504230536 | 67 | 175 | 3.0 | 5.0 | 0.00 | 0.28 | 0.28 | 74 | 998.2 |
| 20260504230035 | 68 | 180 | 2.0 | 4.0 | 0.00 | 0.28 | 0.28 | 72 | 998.5 |
| 20260504225532 | 69 | 171 | 3.0 | 3.0 | 0.00 | 0.28 | 0.28 | 70 | 998.5 |
| 20260504225029 | 68 | 209 | 3.0 | 5.0 | 0.00 | 0.28 | 0.28 | 71 | 998.8 |
| 20260504224525 | 65 | 279 | 4.0 | 7.0 | 0.00 | 0.27 | 0.27 | 74 | 998.7 |
| 20260504224023 | 63 | 277 | 3.0 | 8.0 | 0.00 | 0.27 | 0.27 | 79 | 998.6 |
| 20260504223519 | 62 | 265 | 5.0 | 9.0 | 0.24 | 0.27 | 0.27 | 80 | 998.5 |
| 20260504223015 | 60 | 276 | 9.0 | 15.0 | 0.33 | 0.26 | 0.26 | 87 | 998.8 |
| 20260504222512 | 64 | 233 | 5.0 | 11.0 | 0.07 | 0.22 | 0.22 | 80 | 999.5 |
| 20260504222010 | 63 | 232 | 2.0 | 11.0 | 0.05 | 0.21 | 0.21 | 80 | 999.4 |
| 20260504221507 | 62 | 175 | 5.0 | 6.0 | 0.07 | 0.20 | 0.20 | 90 | 999.6 |
| 20260504221004 | 62 | 279 | 7.0 | 7.0 | 0.87 | 0.20 | 0.20 | 88 | 999.4 |
| 20260504220500 | 62 | 40 | 4.0 | 11.0 | 0.80 | 0.17 | 0.17 | 85 | 999.7 |
| 20260504215957 | 69 | 208 | 14.0 | 34.0 | 0.07 | 0.05 | 0.05 | 69 | 999.9 |
| 20260504215454 | 71 | 262 | 4.0 | 11.0 | 0.00 | 0.04 | 0.04 | 62 | 999.1 |
| 20260504214950 | 72 | 242 | 4.0 | 17.0 | 0.00 | 0.04 | 0.04 | 59 | 999.2 |
| 20260504214446 | 73 | 216 | 10.0 | 20.0 | 0.00 | 0.04 | 0.04 | 56 | 999.2 |
| 20260504213943 | 75 | 210 | 6.0 | 21.0 | 0.00 | 0.04 | 0.04 | 51 | 999.2 |
| 20260504213439 | 74 | 207 | 17.0 | 19.0 | 0.00 | 0.04 | 0.04 | 51 | 999.0 |
| 20260504212937 | 71 | 224 | 4.0 | 9.0 | 0.21 | 0.04 | 0.04 | 62 | 999.0 |
| 20260504212432 | 73 | 174 | 3.0 | 10.0 | 0.21 | 0.04 | 0.04 | 61 | 999.4 |
| 20260504211931 | 76 | 240 | 6.0 | 17.0 | 0.00 | 0.00 | 0.00 | 48 | 999.1 |
| 20260504211426 | 77 | 211 | 7.0 | 13.0 | 0.00 | 0.00 | 0.00 | 44 | 999.6 |
| 20260504210924 | 78 | 234 | 9.0 | 25.0 | 0.00 | 0.00 | 0.00 | 42 | 999.4 |
| 20260504210421 | 79 | 211 | 15.0 | 15.0 | 0.00 | 0.00 | 0.00 | 39 | 999.4 |
| 20260504205918 | 79 | 247 | 7.0 | 12.0 | 0.00 | 0.00 | 0.00 | 38 | 999.6 |
| 20260504205416 | 81 | 217 | 10.0 | 20.0 | 0.00 | 0.00 | 0.00 | 34 | 999.6 |
| 20260504204914 | 80 | 229 | 6.0 | 15.0 | 0.00 | 0.00 | 0.00 | 36 | 999.6 |
| 20260504204412 | 79 | 237 | 4.0 | 17.0 | 0.00 | 0.00 | 0.00 | 38 | 999.6 |
| 20260504203911 | 81 | 222 | 5.0 | 26.0 | 0.00 | 0.00 | 0.00 | 37 | 999.6 |